Location: Kernascl�den
(48.0062°N, 3.3198°W)
Time: 22:54:37
(UTC+00:00)

Cosmos 1680 Rocket - Pass Details

Date: 21 January 2021
Orbit: 761 x 780 km, 74.1° (Epoch: 04 March)

Event Time Altitude Azimuth Distance (km) Brightness Sun altitude
Rises 19:21:28 0° 334° (NNW) 3,250 7.0 -23.9°
Reaches altitude 10° 19:23:52 10° 332° (NNW) 2,316 6.3 -24.3°
Maximum altitude 19:29:03 63° 252° (WSW) 851 3.9 -25.2°
Enters shadow 19:34:10 10° 172° (S) 2,289 5.9 -26.0°
Drops below altitude 10° 19:34:11 10° 172° (S) 2,290 5.9 -26.0°
